User: anonymous   Login
Location: Claremont
(33.9858°S, 18.4575°E)
Time: 02:24:54
(UTC+00:00)
Language:

SL-24 R/B - RUBIN 2 - Orbit

View from above orbital plane
View from above orbital plane
View from above satellite
View from above satellite

Ground track
Ground track

The orbit data is extracted from the following two-line orbital elements,

1 27610U 02058F   21136.88517892 -.00000099  00000-0  83056-5 0  9998
2 27610  64.5595  44.6696 0302769 200.8029 229.9313 14.28201738959553
Epoch (UTC): 16 May 2021 21:14:39
Eccentricity: 0.0302769
inclination: 64.5595°
perigee height: 580 km
apogee height: 1015 km
right ascension of ascending node: 44.6696°
argument of perigee: 200.8029°
revolutions per day: 14.28201738
mean anomaly at epoch: 229.9313°
orbit number at epoch: 95955

The dashed part of the orbit path shows where the satellite is in the earth's shadow,  

DLR